DateTimeUTC,F1_A11,F1_S11,BsB_S11,BsG_S11,BsR_S11,BbsB_S11,BbsG_S11,BbsR_S11,BaB_A11,BaG_A11,BaR_A11,Tu_S11,T_S11,Uu_S11,U_S11,P_S11,T1_A11
2021-09-03T10:00:00Z,00000200,20000000,,,,,,,0000.11,-000.36,-000.46,20.0,26.6,07.7,05.2,0671.0,31.2
2021-09-03T10:01:00Z,00000200,20000000,,,,,,,-000.14,0000.13,0000.08,20.0,26.6,07.7,05.2,0671.0,31.2
2021-09-03T10:02:00Z,00000200,20000000,,,,,,,0000.09,0000.08,-000.02,20.0,26.6,07.7,05.2,0671.0,31.2
2021-09-03T10:03:00Z,00000200,60000000,,,,,,,-000.12,-000.21,-000.13,20.0,26.6,07.7,05.2,0671.0,31.2
2021-09-03T10:04:00Z,00000200,40000000,0000.13,-000.19,0000.33,0000.65,-000.08,-000.09,0000.03,-000.04,0000.22,20.1,26.5,07.5,05.1,0671.9,31.2
2021-09-03T10:05:00Z,00000200,00000000,0000.06,-000.00,0000.02,-000.60,0000.02,-000.29,-000.11,0000.21,-000.08,20.2,26.5,07.5,05.1,0672.0,31.2
2021-09-03T10:06:00Z,00000200,00000000,0000.19,0000.21,0000.26,0000.25,0000.04,-000.03,-000.13,-000.34,-000.15,20.2,26.4,07.3,05.0,0672.0,31.2
2021-09-03T10:07:00Z,00000200,00000000,-000.02,0000.01,0000.00,-000.54,-000.41,-000.12,0000.07,0000.13,0000.23,20.2,26.5,07.3,05.0,0672.0,31.2
2021-09-03T10:08:00Z,00000200,00000000,-000.06,-000.35,0000.30,-000.26,-000.02,0000.01,-000.21,0000.12,-000.03,20.2,26.4,07.4,05.0,0672.0,31.2
2021-09-03T10:09:00Z,00000200,00000000,-000.18,0000.11,0000.03,-000.52,-000.22,-000.11,0000.03,0000.01,0000.01,20.2,26.5,07.5,05.1,0671.9,31.2
2021-09-03T10:10:00Z,00000200,00000000,0000.24,0000.27,-000.07,-000.69,0000.21,-000.13,0000.18,-000.15,0000.07,20.2,26.4,07.5,05.2,0671.9,31.2
2021-09-03T10:11:00Z,00000200,00000000,0000.44,0000.11,0000.10,-000.26,-000.11,-000.24,-000.17,0000.12,-000.08,20.2,26.4,07.5,05.1,0671.9,31.2
2021-09-03T10:12:00Z,00000200,00000000,-000.30,-000.16,-000.07,-000.18,-000.15,0000.08,0000.59,0000.19,-000.12,20.2,26.5,07.4,05.1,0671.9,31.2
2021-09-03T10:13:00Z,00000200,00000000,-000.22,0000.11,0000.12,-000.23,0000.14,-000.24,-000.44,-000.15,0000.14,20.2,26.5,07.5,05.1,0671.9,31.2
2021-09-03T10:14:00Z,00000200,00000000,-000.04,0000.19,0000.07,0000.04,-000.30,0000.02,0000.13,0000.25,-000.07,20.2,26.4,07.4,05.1,0671.9,31.2
2021-09-03T10:15:00Z,00000200,00000000,0000.27,0000.14,0000.54,-000.60,-000.13,0000.12,0000.07,-000.10,-000.15,20.2,26.4,07.5,05.1,0671.9,31.2
2021-09-03T10:16:00Z,00000200,00000000,-000.38,-000.26,0000.22,-000.53,-000.08,0000.07,-000.03,0000.15,0000.38,20.2,26.5,07.5,05.1,0671.9,31.2
2021-09-03T10:17:00Z,00000200,00000000,0000.12,0000.23,0000.21,-000.01,-000.09,-000.05,-000.16,-000.06,-000.26,20.2,26.5,07.5,05.1,0671.8,31.2
2021-09-03T10:18:00Z,00000200,00000000,0000.90,-000.11,0000.17,0000.09,0000.01,-000.22,-000.09,-000.23,-000.19,20.2,26.4,07.4,05.1,0671.8,31.2
2021-09-03T10:19:00Z,00000200,00000000,0000.47,0000.19,0000.19,0000.13,0000.18,0000.01,0000.05,0000.28,0000.22,20.2,26.4,07.4,05.0,0671.8,31.2
2021-09-03T10:20:00Z,00000200,00000000,0000.37,0000.01,0000.09,-000.11,-000.12,-000.17,0000.35,-000.25,-000.05,20.2,26.4,07.4,05.1,0671.9,31.2
2021-09-03T10:21:00Z,00000200,00000000,0000.26,-000.23,0000.31,-000.14,-000.07,-000.23,-000.35,-000.04,-000.03,20.2,26.5,07.4,05.1,0671.8,31.2
2021-09-03T10:22:00Z,00000200,00000000,-000.37,0000.00,0000.18,-000.59,-000.25,-000.29,0000.15,0000.24,0000.09,20.2,26.5,07.3,05.0,0671.8,31.2
2021-09-03T10:23:00Z,00000200,00000000,0000.50,0000.20,-000.01,-000.34,0000.17,0000.01,-000.03,-000.11,0000.06,20.2,26.5,07.3,05.0,0671.8,31.2
2021-09-03T10:24:00Z,00000200,00000000,0000.36,0000.00,0000.07,-000.57,-000.08,-000.18,0000.24,-000.24,0000.10,20.2,26.5,07.3,05.0,0671.8,31.2
2021-09-03T10:25:00Z,00000200,00000000,0000.96,-000.07,0000.07,-000.05,0000.12,-000.30,0000.02,0000.27,0000.02,20.3,26.5,07.3,05.0,0671.8,31.2
2021-09-03T10:26:00Z,00000200,00000000,-001.34,0000.10,-000.37,-000.09,0000.11,-000.07,-000.22,-000.18,-000.16,20.2,26.5,07.2,04.9,0671.8,31.2
2021-09-03T10:27:00Z,00000200,00000000,0000.79,0000.12,-000.11,-000.74,-000.15,-000.21,-000.22,0000.18,0000.14,20.3,26.5,07.2,05.0,0671.8,31.2
2021-09-03T10:28:00Z,00000200,00000000,0000.16,0000.05,-000.01,-000.33,0000.14,0000.34,0000.08,-000.02,-000.02,20.3,26.5,07.2,04.9,0671.8,31.2
2021-09-03T10:29:00Z,00000200,00000000,0000.25,-000.07,-000.06,0000.18,0000.07,-000.15,0000.14,-000.13,-000.24,20.3,26.5,07.1,04.9,0671.8,31.2
2021-09-03T10:30:00Z,00000200,00000000,0000.55,-000.08,0000.06,0000.27,-000.16,-000.35,0000.16,0000.01,0000.20,20.2,26.5,07.2,04.9,0671.8,31.2
2021-09-03T10:31:00Z,00000200,00000000,0000.26,-000.03,0000.03,-000.08,-000.02,0000.06,-000.25,0000.07,-000.22,20.3,26.5,07.1,04.9,0671.8,31.2
2021-09-03T10:32:00Z,00000200,00000000,0000.18,-000.20,0000.05,0000.16,-000.25,-000.13,0000.09,0000.05,0000.29,20.3,26.5,07.1,04.9,0671.8,31.2
2021-09-03T10:33:00Z,00000200,00000000,0000.22,-000.06,-000.16,-000.08,0000.07,-000.31,0000.21,-000.01,0000.02,20.3,26.5,07.1,04.9,0671.8,31.2
2021-09-03T10:34:00Z,00000200,00000000,0000.90,0000.11,0000.17,-000.22,-000.21,0000.01,-000.21,-000.03,-000.53,20.3,26.5,07.1,04.9,0671.8,31.2
2021-09-03T10:35:00Z,00000200,00000000,-000.08,0000.13,0000.05,-000.83,-000.04,0000.14,-000.14,-000.11,0000.33,20.3,26.5,07.0,04.8,0671.8,31.2
2021-09-03T10:36:00Z,00000200,00000000,-000.33,-000.06,-000.11,0000.05,-000.09,-000.09,-000.04,0000.25,0000.17,20.3,26.5,07.1,04.9,0671.8,31.2
2021-09-03T10:37:00Z,00000200,00000000,-000.42,0000.35,-000.21,-000.35,-000.12,-000.12,0000.33,-000.34,-000.01,20.3,26.5,07.1,04.9,0671.8,31.2
2021-09-03T10:38:00Z,00000200,00000000,0000.47,0000.23,0000.19,-000.02,0000.02,0000.07,-000.18,0000.15,-000.12,20.3,26.5,07.0,04.8,0671.8,31.2
2021-09-03T10:39:00Z,00000200,00000000,0000.60,0000.05,0000.17,0000.28,0000.05,0000.12,0000.00,0000.01,-000.06,20.3,26.5,07.1,04.9,0671.8,31.2
2021-09-03T10:40:00Z,00000200,00000000,0000.62,-000.16,0000.18,-000.29,0000.05,-000.09,-000.06,-000.07,0000.36,20.3,26.5,07.1,04.9,0671.8,31.2
2021-09-03T10:41:00Z,00000200,00000000,0000.98,-000.23,0000.18,-000.03,-000.17,0000.28,-000.01,0000.20,0000.05,20.3,26.5,07.0,04.8,0671.8,31.2
2021-09-03T10:42:00Z,00000200,00000000,0000.37,-000.07,0000.11,0000.00,-000.15,-000.14,-000.08,-000.21,-000.53,20.3,26.5,07.0,04.8,0671.8,31.2
2021-09-03T10:43:00Z,00000200,00000000,-000.47,-000.10,0000.13,0000.16,-000.24,0000.03,0000.13,0000.22,0000.33,20.3,26.5,07.0,04.8,0671.8,31.2
2021-09-03T10:44:00Z,00000200,00000000,0000.21,0000.23,0000.13,0000.06,-000.31,0000.02,-000.07,-000.18,-000.26,20.3,26.5,07.0,04.8,0671.8,31.2
2021-09-03T10:45:00Z,00000200,00000000,0000.13,-000.18,-000.07,-000.08,0000.30,-000.05,-000.10,-000.02,-000.08,20.3,26.5,06.9,04.7,0671.7,31.2
2021-09-03T10:46:00Z,00000200,00000000,0000.47,0000.23,0000.14,0000.26,-000.11,-000.08,0000.24,0000.26,0000.09,20.3,26.5,07.0,04.8,0671.8,31.2
2021-09-03T10:47:00Z,00000200,00000000,-000.08,-000.15,0000.45,-000.24,0000.18,0000.02,0000.21,0000.21,-000.14,20.3,26.5,06.9,04.7,0671.7,31.2
2021-09-03T10:48:00Z,00000200,00000000,0000.50,-000.23,0000.19,-000.00,0000.05,0000.08,-000.07,-000.05,0000.37,20.3,26.5,06.9,04.8,0671.7,31.2
2021-09-03T10:49:00Z,00000200,00000000,-000.24,0000.12,0000.16,-000.27,-000.02,-000.33,-000.18,-000.09,-000.03,20.3,26.5,06.9,04.8,0671.7,31.2
2021-09-03T10:50:00Z,00000200,00000000,0000.02,0000.12,0000.30,0000.36,0000.28,-000.21,0000.20,-000.17,0000.12,20.3,26.5,06.9,04.7,0671.7,31.2
2021-09-03T10:51:00Z,00000200,00000000,0000.58,0000.02,-000.03,-000.13,-000.08,-000.13,0000.12,0000.11,-000.16,20.3,26.5,06.9,04.8,0671.7,31.2
2021-09-03T10:52:00Z,00000200,00000000,-000.13,-000.08,-000.07,-000.36,0000.11,-000.07,0000.00,0000.43,0000.12,20.3,26.5,06.9,04.8,0671.7,31.2
2021-09-03T10:53:00Z,00000200,00000000,0000.79,-000.24,-000.09,-000.05,-000.18,0000.08,-000.26,-000.60,-000.06,20.4,26.6,07.0,04.8,0671.7,31.2
2021-09-03T10:54:00Z,00000200,00000000,0000.45,0000.10,-000.28,0000.04,-000.00,-000.13,0000.11,0000.05,-000.03,20.3,26.6,06.8,04.7,0671.6,31.2
2021-09-03T10:55:00Z,00000200,00000000,0000.31,-000.19,-000.12,-000.39,-000.17,-000.28,0000.13,0000.14,0000.08,20.4,26.6,06.8,04.6,0671.7,31.2
2021-09-03T10:56:00Z,00000200,00000000,-000.31,0000.22,-000.03,0000.00,0000.05,-000.09,0000.15,0000.06,-000.08,20.4,26.6,06.8,04.7,0671.7,31.2
2021-09-03T10:57:00Z,00000200,40000000,,,,,,,-000.30,0000.23,0000.24,20.4,26.6,07.0,04.8,0671.7,31.2
2021-09-03T10:58:00Z,00000200,60000000,,,,,,,0000.18,-000.14,-000.28,20.2,26.7,07.0,04.7,0670.7,31.2
2021-09-03T10:59:00Z,00000200,20000000,,,,,,,0000.18,-000.04,-000.00,20.2,26.8,06.8,04.6,0670.7,31.2
